Time,TemperatureF,DewpointF,PressureIn,WindDirection,WindDirectionDegrees,WindSpeedMPH,WindSpeedGustMPH,Humidity,HourlyPrecipIn,Conditions,Clouds,dailyrainin,SoftwareType,DateUTC
2015-04-25 00:10:00,74.6,72.8,29.82,SSW,206,1.0,1.0,94,0.00,,,0.00,Wunderground v.1.15,2015-04-25 06:10:00,
2015-04-25 00:20:00,74.6,72.8,29.81,SW,236,1.0,1.0,94,0.00,,,0.00,Wunderground v.1.15,2015-04-25 06:20:00,
2015-04-25 00:40:00,74.9,73.1,29.81,SSW,200,3.0,4.0,94,0.00,,,0.00,Wunderground v.1.15,2015-04-25 06:40:00,
2015-04-25 00:50:00,75.1,73.3,29.81,South,189,2.0,2.0,94,0.00,,,0.00,Wunderground v.1.15,2015-04-25 06:50:00,
2015-04-25 01:10:00,75.4,73.2,29.81,SSW,200,3.0,3.0,93,0.00,,,0.00,Wunderground v.1.15,2015-04-25 07:10:00,
2015-04-25 01:20:00,75.6,73.4,29.81,SSW,206,3.0,3.0,93,0.00,,,0.00,Wunderground v.1.15,2015-04-25 07:20:00,
2015-04-25 01:40:00,75.8,73.3,29.80,West,277,3.0,3.0,92,0.00,,,0.00,Wunderground v.1.15,2015-04-25 07:40:00,
2015-04-25 01:50:00,75.8,73.3,29.79,WSW,243,3.0,3.0,92,0.00,,,0.00,Wunderground v.1.15,2015-04-25 07:50:00,
2015-04-25 02:10:00,76.0,73.2,29.80,WSW,241,3.0,3.0,91,0.00,,,0.00,Wunderground v.1.15,2015-04-25 08:10:00,
2015-04-25 02:20:00,76.0,73.2,29.82,SSW,192,2.0,2.0,91,0.00,,,0.00,Wunderground v.1.15,2015-04-25 08:20:00,
2015-04-25 02:30:00,76.0,73.2,29.82,WSW,251,1.0,2.0,91,0.00,,,0.00,Wunderground v.1.15,2015-04-25 08:30:00,
2015-04-25 02:40:00,76.1,73.3,29.82,West,260,1.0,1.0,91,0.00,,,0.00,Wunderground v.1.15,2015-04-25 08:40:00,
2015-04-25 02:50:00,76.1,73.3,29.83,West,275,1.0,1.0,91,0.00,,,0.00,Wunderground v.1.15,2015-04-25 08:50:00,
2015-04-25 03:00:00,76.3,73.8,29.83,SW,226,3.0,3.0,92,0.00,,,0.00,Wunderground v.1.15,2015-04-25 09:00:00,
2015-04-25 03:10:00,76.5,74.0,29.83,South,174,3.0,3.0,92,0.00,,,0.00,Wunderground v.1.15,2015-04-25 09:10:00,
2015-04-25 03:20:00,76.3,73.8,29.83,SW,232,2.0,2.0,92,0.00,,,0.00,Wunderground v.1.15,2015-04-25 09:20:00,
2015-04-25 03:30:00,76.3,73.8,29.83,West,275,2.0,2.0,92,0.00,,,0.00,Wunderground v.1.15,2015-04-25 09:30:00,
2015-04-25 03:40:00,76.5,74.0,29.83,West,260,2.0,2.0,92,0.00,,,0.00,Wunderground v.1.15,2015-04-25 09:40:00,
2015-04-25 03:50:00,76.3,73.8,29.82,WSW,258,3.0,4.0,92,0.00,,,0.00,Wunderground v.1.15,2015-04-25 09:50:00,
2015-04-25 04:00:00,76.3,73.8,29.83,West,260,4.0,4.0,92,0.00,,,0.00,Wunderground v.1.15,2015-04-25 10:00:00,
2015-04-25 04:10:00,76.3,73.8,29.83,WNW,289,3.0,3.0,92,0.00,,,0.00,Wunderground v.1.15,2015-04-25 10:10:00,
2015-04-25 04:20:00,76.3,73.8,29.82,WSW,246,2.0,4.0,92,0.00,,,0.00,Wunderground v.1.15,2015-04-25 10:20:00,
2015-04-25 04:30:00,76.3,73.8,29.82,West,270,3.0,4.0,92,0.00,,,0.00,Wunderground v.1.15,2015-04-25 10:30:00,
2015-04-25 04:40:00,76.3,74.1,29.82,WNW,292,3.0,3.0,93,0.00,,,0.00,Wunderground v.1.15,2015-04-25 10:40:00,
2015-04-25 04:50:00,76.3,74.1,29.82,WNW,284,4.0,4.0,93,0.00,,,0.00,Wunderground v.1.15,2015-04-25 10:50:00,
2015-04-25 05:10:00,76.3,74.1,29.83,NNW,344,3.0,3.0,93,0.00,,,0.00,Wunderground v.1.15,2015-04-25 11:10:00,
2015-04-25 05:20:00,76.3,74.1,29.84,WNW,291,2.0,2.0,93,0.00,,,0.00,Wunderground v.1.15,2015-04-25 11:20:00,
2015-04-25 05:31:00,76.3,74.4,29.83,West,271,1.0,2.0,94,0.00,,,0.00,Wunderground v.1.15,2015-04-25 11:31:00,
2015-04-25 05:40:00,76.3,74.4,29.83,WSW,248,2.0,2.0,94,0.00,,,0.00,Wunderground v.1.15,2015-04-25 11:40:00,
2015-04-25 05:50:00,76.3,74.4,29.83,West,261,2.0,2.0,94,0.00,,,0.00,Wunderground v.1.15,2015-04-25 11:50:00,
2015-04-25 06:01:00,76.3,74.4,29.83,SSW,202,2.0,10.0,94,0.00,,,0.00,Wunderground v.1.15,2015-04-25 12:01:00,
2015-04-25 06:10:00,76.3,74.4,29.83,WSW,250,2.0,2.0,94,0.00,,,0.00,Wunderground v.1.15,2015-04-25 12:10:00,
2015-04-25 06:20:00,76.3,74.4,29.83,SW,227,2.0,2.0,94,0.00,,,0.00,Wunderground v.1.15,2015-04-25 12:20:00,
2015-04-25 06:31:00,76.3,74.4,29.83,WSW,251,2.0,2.0,94,0.00,,,0.00,Wunderground v.1.15,2015-04-25 12:31:00,
2015-04-25 06:50:00,76.7,74.5,29.82,West,271,2.0,6.0,93,0.00,,,0.00,Wunderground v.1.15,2015-04-25 12:50:00,
2015-04-25 07:10:00,76.8,74.3,29.83,WSW,247,3.0,4.0,92,0.00,,,0.00,Wunderground v.1.15,2015-04-25 13:10:00,
2015-04-25 07:20:00,77.0,74.5,29.82,WNW,284,3.0,3.0,92,0.00,,,0.00,Wunderground v.1.15,2015-04-25 13:20:00,
2015-04-25 07:40:00,77.9,74.4,29.81,WSW,244,3.0,7.0,89,0.00,,,0.00,Wunderground v.1.15,2015-04-25 13:40:00,
2015-04-25 07:50:00,78.1,74.3,29.82,WNW,292,5.0,5.0,88,0.00,,,0.00,Wunderground v.1.15,2015-04-25 13:50:00,
2015-04-25 08:10:00,79.2,74.6,29.81,SSW,212,5.0,5.0,86,0.00,,,0.00,Wunderground v.1.15,2015-04-25 14:10:00,
2015-04-25 08:20:00,79.2,74.6,29.80,WSW,243,5.0,10.0,86,0.00,,,0.00,Wunderground v.1.15,2015-04-25 14:20:00,
2015-04-25 08:31:00,79.4,74.5,29.80,WNW,288,4.0,7.0,85,0.00,,,0.00,Wunderground v.1.15,2015-04-25 14:31:00,
2015-04-25 08:40:00,79.8,74.5,29.80,SW,234,5.0,7.0,84,0.00,,,0.00,Wunderground v.1.15,2015-04-25 14:40:00,
2015-04-25 08:50:00,79.9,73.9,29.80,West,267,4.0,4.0,82,0.00,,,0.00,Wunderground v.1.15,2015-04-25 14:50:00,
2015-04-25 09:01:00,80.5,74.9,29.79,West,274,5.0,5.0,83,0.00,,,0.00,Wunderground v.1.15,2015-04-25 15:01:00,
2015-04-25 09:10:00,81.1,75.1,29.79,NW,313,4.0,5.0,82,0.00,,,0.00,Wunderground v.1.15,2015-04-25 15:10:00,
2015-04-25 09:20:00,81.4,74.6,29.79,WSW,241,4.0,4.0,80,0.00,,,0.00,Wunderground v.1.15,2015-04-25 15:20:00,
2015-04-25 09:31:00,82.2,75.0,29.78,NNE,24,5.0,5.0,79,0.00,,,0.00,Wunderground v.1.15,2015-04-25 15:31:00,
2015-04-25 09:40:00,83.0,75.0,29.78,NNW,342,4.0,5.0,77,0.00,,,0.00,Wunderground v.1.15,2015-04-25 15:40:00,
2015-04-25 09:50:00,82.2,73.9,29.79,WSW,244,3.0,9.0,76,0.00,,,0.00,Wunderground v.1.15,2015-04-25 15:50:00,
2015-04-25 10:01:00,83.0,75.0,29.79,WSW,256,4.0,9.0,77,0.00,,,0.00,Wunderground v.1.15,2015-04-25 16:01:00,
2015-04-25 10:10:00,82.8,74.1,29.79,WNW,287,4.0,9.0,75,0.00,,,0.00,Wunderground v.1.15,2015-04-25 16:10:00,
2015-04-25 10:20:00,82.8,74.1,29.80,West,270,4.0,4.0,75,0.00,,,0.00,Wunderground v.1.15,2015-04-25 16:20:00,
2015-04-25 10:31:00,82.8,73.7,29.79,South,174,3.0,6.0,74,0.00,,,0.00,Wunderground v.1.15,2015-04-25 16:31:00,
2015-04-25 10:40:00,83.8,73.8,29.79,WSW,243,4.0,11.0,72,0.00,,,0.00,Wunderground v.1.15,2015-04-25 16:40:00,
2015-04-25 10:50:00,84.1,73.3,29.79,SW,236,6.0,11.0,70,0.00,,,0.00,Wunderground v.1.15,2015-04-25 16:50:00,
2015-04-25 11:01:00,84.3,73.4,29.80,WSW,254,5.0,7.0,70,0.00,,,0.00,Wunderground v.1.15,2015-04-25 17:01:00,
2015-04-25 11:10:00,83.0,73.0,29.80,WSW,246,7.0,17.0,72,0.00,,,0.00,Wunderground v.1.15,2015-04-25 17:10:00,
2015-04-25 11:20:00,82.4,73.7,29.78,NNW,332,5.0,5.0,75,0.00,,,0.00,Wunderground v.1.15,2015-04-25 17:20:00,
2015-04-25 11:31:00,82.6,73.9,29.80,WSW,257,4.0,4.0,75,0.00,,,0.00,Wunderground v.1.15,2015-04-25 17:31:00,
2015-04-25 11:40:00,82.8,73.7,29.80,SW,216,4.0,7.0,74,0.00,,,0.00,Wunderground v.1.15,2015-04-25 17:40:00,
2015-04-25 11:50:00,82.4,73.7,29.80,SW,220,4.0,4.0,75,0.00,,,0.00,Wunderground v.1.15,2015-04-25 17:50:00,
2015-04-25 12:01:00,82.2,73.9,29.80,WSW,256,3.0,9.0,76,0.00,,,0.00,Wunderground v.1.15,2015-04-25 18:01:00,
2015-04-25 12:10:00,81.8,73.9,29.80,West,264,5.0,5.0,77,0.00,,,0.00,Wunderground v.1.15,2015-04-25 18:10:00,
2015-04-25 12:31:00,81.2,74.1,29.77,WNW,295,4.0,4.0,79,0.00,,,0.00,Wunderground v.1.15,2015-04-25 18:31:00,
2015-04-25 12:40:00,80.7,73.6,29.77,WSW,256,4.0,7.0,79,0.00,,,0.00,Wunderground v.1.15,2015-04-25 18:40:00,
2015-04-25 12:50:00,80.7,74.0,29.77,SW,234,3.0,3.0,80,0.00,,,0.00,Wunderground v.1.15,2015-04-25 18:50:00,
2015-04-25 13:01:00,80.3,73.9,29.76,WSW,248,4.0,4.0,81,0.00,,,0.00,Wunderground v.1.15,2015-04-25 19:01:00,
2015-04-25 13:10:00,79.8,73.8,29.76,SW,230,3.0,3.0,82,0.00,,,0.00,Wunderground v.1.15,2015-04-25 19:10:00,
2015-04-25 13:20:00,79.4,74.1,29.77,WSW,240,3.0,13.0,84,0.00,,,0.00,Wunderground v.1.15,2015-04-25 19:20:00,
2015-04-25 13:31:00,78.5,74.6,29.77,West,277,2.0,2.0,88,0.00,,,0.00,Wunderground v.1.15,2015-04-25 19:31:00,
2015-04-25 13:40:00,78.1,74.6,29.77,WSW,250,2.0,2.0,89,0.08,,,0.02,Wunderground v.1.15,2015-04-25 19:40:00,
2015-04-25 13:50:00,77.7,74.9,29.76,NW,313,2.0,2.0,91,0.06,,,0.02,Wunderground v.1.15,2015-04-25 19:50:00,
2015-04-25 14:00:00,73.5,69.1,29.84,NW,325,7.0,7.0,86,0.00,,,0.03,Wunderground v.1.15,2015-04-25 20:00:00,
2015-04-25 14:10:00,69.3,66.2,29.84,WNW,301,10.0,10.0,90,1.25,,,0.12,Wunderground v.1.15,2015-04-25 20:10:00,
2015-04-25 14:20:00,68.4,66.6,29.90,WNW,302,6.0,8.0,94,0.32,,,0.31,Wunderground v.1.15,2015-04-25 20:20:00,
2015-04-25 14:31:00,68.6,67.1,29.88,NW,326,4.0,4.0,95,0.38,,,0.34,Wunderground v.1.15,2015-04-25 20:31:00,
2015-04-25 14:40:00,68.8,67.6,29.88,NW,325,3.0,4.0,96,0.25,,,0.39,Wunderground v.1.15,2015-04-25 20:40:00,
2015-04-25 14:50:00,69.1,67.9,29.85,NW,315,2.0,4.0,96,0.10,,,0.40,Wunderground v.1.15,2015-04-25 20:50:00,
2015-04-25 15:01:00,69.4,68.2,29.82,NW,325,2.0,2.0,96,0.06,,,0.41,Wunderground v.1.15,2015-04-25 21:01:00,
2015-04-25 15:10:00,69.4,68.2,29.82,West,277,0.0,1.0,96,0.00,,,0.41,Wunderground v.1.15,2015-04-25 21:10:00,
2015-04-25 15:20:00,69.4,68.2,29.81,West,277,0.0,0.0,96,0.00,,,0.41,Wunderground v.1.15,2015-04-25 21:20:00,
2015-04-25 15:31:00,69.4,68.2,29.77,West,265,0.0,1.0,96,0.00,,,0.42,Wunderground v.1.15,2015-04-25 21:31:00,
2015-04-25 15:40:00,69.8,68.6,29.77,SSE,152,1.0,8.0,96,0.00,,,0.42,Wunderground v.1.15,2015-04-25 21:40:00,
2015-04-25 15:50:00,69.6,68.4,29.69,WSW,244,3.0,3.0,96,0.00,,,0.42,Wunderground v.1.15,2015-04-25 21:50:00,
2015-04-25 16:01:00,69.3,68.1,29.70,SW,232,2.0,2.0,96,0.00,,,0.42,Wunderground v.1.15,2015-04-25 22:01:00,
2015-04-25 16:10:00,69.1,67.9,29.70,WSW,251,1.0,1.0,96,0.00,,,0.42,Wunderground v.1.15,2015-04-25 22:10:00,
2015-04-25 16:20:00,69.1,67.9,29.72,WSW,251,0.0,0.0,96,0.00,,,0.42,Wunderground v.1.15,2015-04-25 22:20:00,
2015-04-25 16:31:00,68.9,67.7,29.72,West,261,0.0,0.0,96,0.00,,,0.42,Wunderground v.1.15,2015-04-25 22:31:00,
2015-04-25 16:40:00,68.6,67.4,29.72,SW,227,1.0,1.0,96,0.00,,,0.42,Wunderground v.1.15,2015-04-25 22:40:00,
2015-04-25 16:50:00,68.4,67.2,29.71,WSW,248,2.0,2.0,96,0.00,,,0.43,Wunderground v.1.15,2015-04-25 22:50:00,
2015-04-25 17:10:00,68.4,67.2,29.70,WSW,240,0.0,0.0,96,0.00,,,0.43,Wunderground v.1.15,2015-04-25 23:10:00,
2015-04-25 17:20:00,68.9,67.7,29.67,WSW,240,0.0,0.0,96,0.00,,,0.43,Wunderground v.1.15,2015-04-25 23:20:00,
2015-04-25 17:40:00,68.9,67.7,29.69,WSW,240,0.0,0.0,96,0.00,,,0.43,Wunderground v.1.15,2015-04-25 23:40:00,
2015-04-25 17:50:00,68.6,67.4,29.70,WSW,240,0.0,0.0,96,0.00,,,0.43,Wunderground v.1.15,2015-04-25 23:50:00,
2015-04-25 18:10:00,68.8,67.6,29.70,WSW,240,0.0,0.0,96,0.00,,,0.43,Wunderground v.1.15,2015-04-26 00:10:00,
2015-04-25 18:20:00,68.9,67.7,29.69,WSW,240,0.0,0.0,96,0.00,,,0.43,Wunderground v.1.15,2015-04-26 00:20:00,
2015-04-25 18:40:00,68.6,67.7,29.70,WSW,240,0.0,0.0,97,0.00,,,0.43,Wunderground v.1.15,2015-04-26 00:40:00,
2015-04-25 18:50:00,68.4,67.5,29.71,WSW,240,0.0,0.0,97,0.00,,,0.43,Wunderground v.1.15,2015-04-26 00:50:00,
2015-04-25 19:10:00,68.3,67.4,29.71,WSW,240,0.0,0.0,97,0.00,,,0.43,Wunderground v.1.15,2015-04-26 01:10:00,
2015-04-25 19:20:00,68.1,67.2,29.71,WSW,240,0.0,0.0,97,0.00,,,0.43,Wunderground v.1.15,2015-04-26 01:20:00,
2015-04-25 19:30:00,67.8,66.9,29.72,WSW,240,0.0,0.0,97,0.00,,,0.43,Wunderground v.1.15,2015-04-26 01:30:00,
2015-04-25 19:40:00,67.6,66.7,29.72,WSW,240,0.0,0.0,97,0.00,,,0.43,Wunderground v.1.15,2015-04-26 01:40:00,
2015-04-25 19:50:00,67.4,66.5,29.72,WSW,240,0.0,0.0,97,0.00,,,0.43,Wunderground v.1.15,2015-04-26 01:50:00,
2015-04-25 20:00:00,67.3,66.4,29.72,WSW,240,0.0,0.0,97,0.00,,,0.43,Wunderground v.1.15,2015-04-26 02:00:00,
2015-04-25 20:10:00,67.1,66.2,29.72,WSW,240,0.0,0.0,97,0.00,,,0.43,Wunderground v.1.15,2015-04-26 02:10:00,
2015-04-25 20:20:00,66.9,66.0,29.73,WSW,240,0.0,0.0,97,0.00,,,0.43,Wunderground v.1.15,2015-04-26 02:20:00,
2015-04-25 20:31:00,66.8,66.2,29.74,WSW,240,0.0,0.0,98,0.00,,,0.43,Wunderground v.1.15,2015-04-26 02:31:00,
2015-04-25 20:40:00,66.8,66.2,29.74,NW,320,0.0,0.0,98,0.00,,,0.43,Wunderground v.1.15,2015-04-26 02:40:00,
2015-04-25 20:50:00,66.6,66.0,29.74,WNW,291,0.0,0.0,98,0.00,,,0.43,Wunderground v.1.15,2015-04-26 02:50:00,
2015-04-25 21:01:00,66.4,65.8,29.74,WNW,291,0.0,0.0,98,0.00,,,0.43,Wunderground v.1.15,2015-04-26 03:01:00,
2015-04-25 21:10:00,66.4,65.8,29.74,WNW,291,0.0,0.0,98,0.00,,,0.43,Wunderground v.1.15,2015-04-26 03:10:00,
2015-04-25 21:20:00,66.4,65.8,29.75,WNW,291,0.0,0.0,98,0.00,,,0.43,Wunderground v.1.15,2015-04-26 03:20:00,
2015-04-25 21:30:00,66.3,65.7,29.75,WNW,291,0.0,0.0,98,0.00,,,0.43,Wunderground v.1.15,2015-04-26 03:30:00,
2015-04-25 21:40:00,66.1,65.5,29.75,WNW,291,0.0,0.0,98,0.00,,,0.43,Wunderground v.1.15,2015-04-26 03:40:00,
2015-04-25 21:50:00,66.0,65.4,29.75,WNW,291,0.0,0.0,98,0.00,,,0.43,Wunderground v.1.15,2015-04-26 03:50:00,
2015-04-25 22:10:00,65.8,65.2,29.75,WNW,291,0.0,0.0,98,0.00,,,0.43,Wunderground v.1.15,2015-04-26 04:10:00,
2015-04-25 22:20:00,66.0,65.4,29.75,WNW,291,0.0,0.0,98,0.00,,,0.43,Wunderground v.1.15,2015-04-26 04:20:00,
2015-04-25 22:31:00,66.0,65.4,29.76,WNW,291,0.0,0.0,98,0.00,,,0.43,Wunderground v.1.15,2015-04-26 04:31:00,
2015-04-25 22:40:00,65.8,65.2,29.76,WNW,291,0.0,0.0,98,0.00,,,0.43,Wunderground v.1.15,2015-04-26 04:40:00,
2015-04-25 22:50:00,65.6,65.0,29.76,WNW,291,0.0,0.0,98,0.00,,,0.43,Wunderground v.1.15,2015-04-26 04:50:00,
2015-04-25 23:10:00,65.5,64.9,29.76,WNW,291,0.0,0.0,98,0.00,,,0.00,Wunderground v.1.15,2015-04-26 05:10:00,
2015-04-25 23:20:00,65.5,64.9,29.76,WNW,291,0.0,0.0,98,0.00,,,0.00,Wunderground v.1.15,2015-04-26 05:20:00,